Kuiper-00021

operational
NORAD ID: 63736 Int'l Des: 2025-088 Owner: KUIP Country: US Constellation: kuiper
LEOCIRCULAR

Kuiper-00021について

説明を読み込み中...

リアルタイム位置

3D地球を読み込み中...

次回通過

高度履歴

Altitude vs Time

uPlot chart will show altitude changes over time

軌道要素

1 63736U 25088N 26034.00777669 .00003130 00000-0 43926-3 0 9999
2 63736 51.8990 257.4463 0004860 337.3913 22.6834 14.79952563 42346
Epoch: Feb 3, 2026 • Age: 17 hours

現在のステータス

高度 636.7 km
速度 7.55 km/s
衛星直下点 52.02°N, 43.94°W
打ち上げ日 Apr 28, 2025
運用期間 0.7 years
タイプ internet

技術仕様

分類 Payload
質量 490.00 kg
乾燥質量 490.00 kg
総質量 490.00 kg
長さ 1.80 m
直径 0.70 m
スパン 5.00 m
形状 Box + 2 pan
製造者 KUIP
バスタイプ Kuiper
フェーズステータス In Orbit
所有者/国 KUIP/US

大規模コンステレーション

Loading constellations...